Regional Weather Roundup
Issued by NWS Green Bay, WI

Home | Current Version | Previous Version | Text Only | Print | Product List | Glossary On
Versions: 1 2 3 4 5 6 7 8 9 10 11 12 13 14 15 16 17 18 19 20 21 22 23 24 25 26 27 28 29 30 31 32 33 34 35 36 37 38 39 40 41 42 43 44 45 46 47 48 49 50
000
ASUS43 KGRB 281411
RWRGRB

NORTH-CENTRAL AND NORTHEAST WISCONSIN REGIONAL WEATHER ROUNDUP
NATIONAL WEATHER SERVICE GREEN BAY WI
900 AM CDT FRI APR 28 2017

WIZ005-009-010>012-018-019-281500-
NORTH CENTRAL WISCONSIN

CITY           SKY/WX    TMP DP  RH WIND       PRES   REMARKS
IRONWOOD       CLOUDY    30  25  80 W13       29.80R
MANITOWISH WTR CLOUDY    29  23  78 W14G21    29.78R
ARBOR VITAE    CLOUDY    32  24  74 NW16      29.79R
EAGLE RIVER    CLOUDY    31  20  63 W14G20    29.79R
LAND O LAKES   CLOUDY    31  22  70 W12G21    29.78S
RHINELANDER    CLOUDY    32  24  72 W16       29.81R
PHILLIPS       CLOUDY    30  26  86 W5        29.81R
ANTIGO         CLOUDY    32  25  76 W15G22    29.83R
TOMAHAWK       CLOUDY    32  23  70 W12G17    29.83R
MERRILL        CLOUDY    33  24  71 W7        29.84R
$$

WIZ013-073-281500-
NORTHEAST WISCONSIN

CITY           SKY/WX    TMP DP  RH WIND       PRES   REMARKS
IRON MOUNTAIN  CLOUDY    33  25  72 W9        29.78R
MARINETTE      CLOUDY    35  26  69 W12G17    29.87R
OCONTO         CLOUDY    36  25  65 W13G20    29.88R
$$

WIZ017-030-035>037-045-281500-
CENTRAL WISCONSIN

CITY           SKY/WX    TMP DP  RH WIND       PRES   REMARKS
MEDFORD        CLOUDY    32  22  68 W13G23    29.83R
WAUSAU         PTSUNNY   35  26  69 W12       29.84R
MOSINEE        PTSUNNY   36  25  64 W16       29.86R
MARSHFIELD     MOSUNNY   37  25  61 NW15G26   29.85R
WISC RAPIDS    CLOUDY    38  27  64 W13       29.90R
STEVENS POINT  PTSUNNY   35  24  63 W10       29.87R
WAUPACA        PTSUNNY   40  28  61 W12       29.89S
SHAWANO        CLOUDY    38  27  64 W12       29.87R
CLINTONVILLE   CLOUDY    37  27  65 W8        29.88R
WAUTOMA        PTSUNNY   39  28  64 W10       29.91R
$$

WIZ038-039-048-051-281500-
FOX VALLEY

CITY           SKY/WX    TMP DP  RH WIND       PRES   REMARKS
NWS GREEN BAY  CLOUDY    38  29  70 W13       29.89R
APPLETON       PTSUNNY   37  25  60 W10       29.88R
OSHKOSH        CLOUDY    38  29  70 W5        29.90R
FOND DU LAC    CLOUDY    38  28  67 W6        29.92R
$$

WIZ022-050-052-281500-
EAST CENTRAL WISCONSIN

CITY           SKY/WX    TMP DP  RH WIND       PRES   REMARKS
EPHRAIM        CLOUDY    34  26  72 W9        29.86R
WASHINGTON ISL CLOUDY    35  24  64 W12G18    29.86R
STURGEON BAY   CLOUDY    36  27  69 W12       29.88R
MANITOWOC      CLOUDY    38  29  70 W12       29.92R
SHEBOYGAN      CLOUDY    39  34  82 SW8       29.92R
$$

LMZ563-521-522-541>543-281500-
LAKESHORE

STATION/POSITION TIME  TEMP    WIND        PRES    VSBY  WAVE
                       AIR SEA DIR/SP/G                  HT/PER
                 (UTC) (F)     (DEG/KT/KT) (MB)    (MI)  (FT/S)
SHEBOYGAN LKSHOR 1400   39     240/  6/  9 1013.7R
KEWAUNEE LKSHORE 1348   37     250/ 12/ 14 1012.1R
NORTHPORT PIER   1330   35     280/  7/ 14 1011.5R
N MID LAKE BUOY  1350   35 37  240/ 16/ 19 1012.3R         3/ 4
SISTER BAY LKSHO 1336   36     300/ 17/ 20   N/A
CHAMBERS ISLAND  1340   35     210/  7/ 15 1010.8R
MENOMINEE LKSHOR 1348   36     240/  9/ 13 1010.7R
$$



USA.gov is the U.S. government's official web portal to all federal, state and local government web resources and services.